Weather History for KSKA - March, 2013

Change the Weather History Date:

Sunday, March 3, 2013

  Actual Average Record
Temperature  
Mean Temperature 36 °F -  
Max Temperature 43 °F 40 °F 53 °F (2005)
Min Temperature 29 °F 26 °F 17 °F (2015)
Degree Days  
Heating Degree Days 29    
Moisture  
Dew Point 24 °F    
Average Humidity 65    
Maximum Humidity 76    
Minimum Humidity 39    
Precipitation  
Precipitation 0.00 in - - ()
Sea Level Pressure  
Sea Level Pressure 29.99 in    
Wind  
Wind Speed 17 mph (West)    
Max Wind Speed 23 mph    
Max Gust Speed 28 mph    
Visibility 10 miles    
Events Snow    
Averages and records for this station are not official NWS values.
T = Trace of Precipitation, MM = Missing Value Source: NWS Daily Summary

Daily Weather History Graph

Daily Weather History Graph

Search for Another Location

Airport or City:

Trip Planner

Search our weather history database for the weather conditions in past years. The results will help you decide how hot, cold, wet, or windy it might be!

Date:

Astronomy

Mar. 03, 2013 Rise Set
Actual Time 6:26 AM PST 5:39 PM PST
Civil Twilight 5:55 AM PST 6:09 PM PST
Nautical Twilight 5:20 AM PST 6:45 PM PST
Astronomical Twilight 4:44 AM PST 7:21 PM PST
Moon No Moon Rise 9:17 AM PST (3/3)
Length of Visible Light 12h 14m
Length of Day
11h 12m
Waning Gibbous, 62% of the Moon is Illuminated
Mar 3
Waning Gibbous
Mar 4
Last Quarter
Mar 11
New
Mar 19
First Quarter
Mar 27
Full

Hourly Weather History & Observations

Time (PST) Temp. Windchill Dew Point Humidity Pressure Visibility Wind Dir Wind Speed Gust Speed Precip Events Conditions
12:15 AM 39.2 °F 30.8 °F 32.0 °F 75% 29.87 in 10.0 mi WSW 15.0 mph - N/A   Overcast
12:30 AM 39.2 °F 30.5 °F 32.0 °F 75% 29.88 in 10.0 mi SW 16.1 mph - N/A   Overcast
12:32 AM 39.2 °F 30.2 °F 32.0 °F 75% 29.88 in 10.0 mi SW 17.3 mph - N/A   Overcast
12:42 AM 39.2 °F 30.2 °F 32.0 °F 75% 29.87 in 10.0 mi WSW 17.3 mph 25.3 mph N/A   Overcast
12:58 AM 37.0 °F 27.7 °F 30.2 °F 76% 29.91 in 10.0 mi SW 16.1 mph - 0.00 in   Scattered Clouds
1:07 AM 35.6 °F 25.5 °F 28.4 °F 75% 29.88 in 10.0 mi WSW 17.3 mph - N/A   Scattered Clouds
1:31 AM 35.6 °F 25.5 °F 26.6 °F 70% 29.89 in 10.0 mi WSW 17.3 mph 26.5 mph N/A   Partly Cloudy
1:58 AM 33.4 °F 22.7 °F 25.3 °F 72% 29.92 in 10.0 mi WSW 17.3 mph - 0.00 in   Clear
2:01 AM 32.0 °F 20.5 °F 24.8 °F 75% 29.88 in 10.0 mi WSW 18.4 mph - N/A   Clear
2:36 AM 32.0 °F 19.8 °F 24.8 °F 75% 29.90 in 10.0 mi West 20.7 mph - N/A   Clear
2:39 AM 32.0 °F 19.8 °F 24.8 °F 75% 29.89 in 10.0 mi West 20.7 mph - N/A   Clear
2:52 AM 32.0 °F 20.1 °F 24.8 °F 75% 29.90 in 10.0 mi WSW 19.6 mph - N/A   Clear
2:58 AM 32.2 °F 20.7 °F 25.2 °F 75% 29.94 in 10.0 mi WSW 18.4 mph - 0.00 in   Clear
3:30 AM 32.0 °F 21.6 °F 24.8 °F 75% 29.90 in 10.0 mi West 15.0 mph - N/A   Clear
3:39 AM 32.0 °F 20.5 °F 23.0 °F 69% 29.90 in 10.0 mi WSW 18.4 mph 26.5 mph N/A   Clear
3:43 AM 32.0 °F 20.5 °F 23.0 °F 69% 29.90 in 10.0 mi WSW 18.4 mph 26.5 mph N/A   Clear
3:58 AM 31.3 °F 19.2 °F 22.8 °F 71% 29.94 in 10.0 mi WSW 19.6 mph 26.5 mph 0.00 in   Clear
4:58 AM 29.8 °F 17.7 °F 21.7 °F 72% 29.97 in 10.0 mi WSW 18.4 mph 27.6 mph 0.00 in Snow Light Snow
5:44 AM 30.2 °F 18.5 °F 23.0 °F 75% 29.94 in 10.0 mi West 17.3 mph - N/A   Clear
5:55 AM 30.2 °F 18.1 °F 23.0 °F 75% 29.94 in 10.0 mi West 18.4 mph - N/A Snow Light Snow
5:58 AM 29.5 °F 17.6 °F 22.3 °F 75% 29.99 in 10.0 mi West 17.3 mph - 0.00 in Snow Light Snow
6:09 AM 30.2 °F 19.3 °F 23.0 °F 75% 29.94 in 10.0 mi West 15.0 mph - N/A   Mostly Cloudy
6:49 AM 30.2 °F 18.5 °F 21.2 °F 69% 29.94 in 10.0 mi WSW 17.3 mph - N/A   Scattered Clouds
6:58 AM 29.5 °F 18.0 °F 21.6 °F 72% 29.99 in 10.0 mi WSW 16.1 mph - 0.00 in   Scattered Clouds
7:18 AM 30.2 °F 17.8 °F 23.0 °F 75% 29.95 in 10.0 mi WSW 19.6 mph - N/A   Scattered Clouds
7:46 AM 32.0 °F 19.8 °F 23.0 °F 69% 29.95 in 10.0 mi WSW 20.7 mph 26.5 mph N/A   Clear
7:58 AM 31.6 °F 20.0 °F 23.0 °F 70% 30.01 in 10.0 mi WSW 18.4 mph - 0.00 in   Clear
8:58 AM 33.8 °F 21.6 °F 23.9 °F 67% 30.03 in 10.0 mi WSW 23.0 mph - 0.00 in Snow Light Snow
9:01 AM 33.8 °F 22.2 °F 24.8 °F 70% 29.97 in 10.0 mi WSW 20.7 mph - N/A   Mostly Cloudy
9:07 AM 32.0 °F 19.5 °F 24.8 °F 75% 29.98 in 10.0 mi WSW 21.9 mph 26.5 mph N/A Snow Light Snow
9:10 AM 32.0 °F 20.1 °F 24.8 °F 75% 29.98 in 10.0 mi WSW 19.6 mph 26.5 mph N/A   Overcast
9:13 AM 33.8 °F 22.2 °F 24.8 °F 70% 29.97 in 10.0 mi WSW 20.7 mph 26.5 mph N/A Snow Light Snow
9:38 AM 35.6 °F 24.8 °F 24.8 °F 65% 29.98 in 10.0 mi WSW 19.6 mph - N/A   Scattered Clouds
9:45 AM 35.6 °F 24.8 °F 23.0 °F 60% 29.98 in 10.0 mi WSW 19.6 mph - N/A Snow Light Snow
9:58 AM 36.0 °F 24.7 °F 23.7 °F 61% 30.03 in 10.0 mi WSW 21.9 mph - 0.00 in Snow Light Snow
10:30 AM 39.2 °F 29.3 °F 23.0 °F 52% 29.98 in 10.0 mi WSW 20.7 mph - N/A   Scattered Clouds
10:58 AM 40.6 °F 30.7 °F 22.3 °F 48% 30.02 in 10.0 mi West 23.0 mph - 0.00 in   Clear
11:58 AM 40.5 °F 31.2 °F 18.9 °F 42% 30.04 in 10.0 mi West 19.6 mph 24.2 mph N/A   Mostly Cloudy
12:55 PM 40.6 °F 31.7 °F 20.1 °F 44% 30.05 in 10.0 mi WSW 18.4 mph 23.0 mph N/A   Clear
1:55 PM 42.8 °F 34.5 °F 19.9 °F 40% 30.06 in 10.0 mi WSW 18.4 mph 27.6 mph N/A   Partly Cloudy
2:55 PM 43.3 °F 36.1 °F 19.6 °F 39% 30.07 in 10.0 mi West 15.0 mph 23.0 mph N/A   Partly Cloudy
3:55 PM 42.3 °F 34.8 °F 19.4 °F 40% 30.08 in 10.0 mi WSW 15.0 mph - N/A   Clear
4:55 PM 40.1 °F 32.0 °F 21.6 °F 48% 30.09 in 10.0 mi West 15.0 mph - N/A   Partly Cloudy
5:55 PM 36.0 °F 28.5 °F 23.5 °F 61% 30.12 in 10.0 mi West 10.4 mph - N/A   Overcast
7:55 PM 35.6 °F 28.6 °F 21.2 °F 56% 30.09 in 10.0 mi NW 9.2 mph - N/A   Overcast
7:58 PM 35.6 °F 29.2 °F 21.2 °F 56% 30.09 in 10.0 mi NNW 8.1 mph - N/A   Overcast
8:18 PM 35.6 °F 29.9 °F 23.0 °F 60% 30.09 in 10.0 mi North 6.9 mph - N/A   Overcast
8:55 PM 35.6 °F 29.9 °F 21.2 °F 56% 30.10 in 10.0 mi North 6.9 mph - N/A   Overcast
9:05 PM 35.6 °F 30.7 °F 21.2 °F 56% 30.11 in 10.0 mi NNW 5.8 mph - N/A   Overcast
9:20 PM 35.6 °F 29.9 °F 21.2 °F 56% 30.11 in 10.0 mi North 6.9 mph - N/A   Overcast
10:06 PM 35.6 °F 30.7 °F 21.2 °F 56% 30.12 in 10.0 mi NNW 5.8 mph - N/A   Overcast
10:07 PM 35.6 °F 30.7 °F 21.2 °F 56% 30.12 in 10.0 mi NNW 5.8 mph - N/A   Overcast
10:58 PM 33.6 °F 28.4 °F 21.7 °F 62% 30.18 in 10.0 mi NNW 5.8 mph - 0.00 in   Overcast